User: anonymous   Login
Location: El Centro
(32.7920°N, 115.5620°W)
Time: 01:42:33
(UTC-08:00)
Language:

Hamsat - Orbit

View from above orbital plane
View from above orbital plane
View from above satellite
View from above satellite

Ground track
Ground track

The orbit data is extracted from the following two-line orbital elements,

1 28650U 05017B   14353.14545359  .00004034  00000-0  46039-3 0  9341
2 28650 097.5649 349.0015 0022872 267.1591 092.7007 14.86434567520692
Epoch (UTC): 19 December 2014 03:29:27
Eccentricity: 0.0022872
inclination: 97.5649°
perigee height: 593 km
apogee height: 625 km
right ascension of ascending node: 349.0015°
argument of perigee: 267.1591°
revolutions per day: 14.86434567
mean anomaly at epoch: 92.7007°
orbit number at epoch: 52069

The dashed part of the orbit path shows where the satellite is in the earth's shadow,  

DLR